Ellensburg, WA

6:07 AM PST on February 25, 2018 (GMT -0800)
Bowers

Weather History for KELN - June, 2013

Change the Weather History Date:

Thursday, June 6, 2013

  Actual Average (KYKM) Record (KYKM)
Temperature  
Mean Temperature 76 °F -  
Max Temperature 91 °F 78 °F 104 °F (2016)
Min Temperature 60 °F 49 °F 32 °F (1999)
Cooling Degree Days 10    
Growing Degree Days 26 (Base 50)    
Moisture  
Dew Point 47 °F    
Average Humidity 41    
Maximum Humidity 62    
Minimum Humidity 17    
Precipitation  
Precipitation 0.00 in - - ()
Sea Level Pressure  
Sea Level Pressure 29.93 in    
Wind  
Wind Speed 12 mph (NW)    
Max Wind Speed 24 mph    
Max Gust Speed 39 mph    
Visibility 10 miles    
Events      
Averages and records for this station are not official NWS values.
T = Trace of Precipitation, MM = Missing Value Source: NWS Daily Summary

Daily Weather History Graph

Daily Weather History Graph

Search for Another Location

Airport or City:

Trip Planner

Search our weather history database for the weather conditions in past years. The results will help you decide how hot, cold, wet, or windy it might be!

Date:

Astronomy

Jun. 06, 2013 Rise Set
Actual Time 5:08 AM PDT 8:54 PM PDT
Civil Twilight 4:28 AM PDT 9:33 PM PDT
Nautical Twilight 3:35 AM PDT 10:26 PM PDT
Astronomical Twilight 2:20 AM PDT 11:42 PM PDT
Moon 4:00 AM PDT (6/6) 7:14 PM PDT (6/6)
Length of Visible Light 17h 04m
Length of Day
15h 45m
Waning Crescent, 3% of the Moon is Illuminated
Jun 6
Waning Crescent
Jun 8
New
Jun 16
First Quarter
Jun 23
Full
Jun 29
Last Quarter

Hourly Weather History & Observations

Time (PDT) Temp. Dew Point Humidity Pressure Visibility Wind Dir Wind Speed Gust Speed Precip Events Conditions
12:53 AM 66.0 °F 51.1 °F 59% 29.94 in 10.0 mi NW 16.1 mph - N/A   Clear
1:53 AM 66.0 °F 50.0 °F 56% 29.92 in 10.0 mi WNW 19.6 mph - N/A   Clear
2:53 AM 64.0 °F 48.9 °F 58% 29.93 in 10.0 mi NNW 11.5 mph - N/A   Clear
3:53 AM 64.0 °F 48.0 °F 56% 29.94 in 10.0 mi NW 13.8 mph - N/A   Clear
4:53 AM 62.1 °F 46.0 °F 56% 29.95 in 10.0 mi NNW 8.1 mph - N/A   Clear
5:53 AM 60.1 °F 45.0 °F 57% 29.96 in 10.0 mi Calm Calm - N/A   Clear
6:53 AM 62.1 °F 48.9 °F 62% 29.98 in 10.0 mi East 4.6 mph - N/A   Clear
7:53 AM 66.9 °F 51.1 °F 57% 29.98 in 10.0 mi ENE 4.6 mph - N/A   Clear
8:53 AM 71.1 °F 51.1 °F 49% 29.98 in 10.0 mi East 4.6 mph - N/A   Clear
9:53 AM 73.9 °F 50.0 °F 43% 29.98 in 10.0 mi Calm Calm - N/A   Clear
10:53 AM 79.0 °F 48.9 °F 35% 29.96 in 10.0 mi Calm Calm - N/A   Clear
11:53 AM 82.0 °F 46.0 °F 28% 29.95 in 10.0 mi ENE 4.6 mph - N/A   Clear
12:53 PM 84.0 °F 44.1 °F 25% 29.94 in 10.0 mi WNW 4.6 mph - N/A   Clear
1:53 PM 87.1 °F 44.1 °F 22% 29.92 in 10.0 mi West 6.9 mph - N/A   Clear
2:53 PM 89.1 °F 42.1 °F 19% 29.90 in 10.0 mi WNW 4.6 mph - N/A   Clear
3:53 PM 91.0 °F 41.0 °F 17% 29.88 in 10.0 mi West 5.8 mph - N/A   Clear
4:53 PM 86.0 °F 46.0 °F 25% 29.89 in 10.0 mi WNW 18.4 mph - N/A   Clear
5:53 PM 81.0 °F 48.9 °F 33% 29.89 in 10.0 mi NW 23.0 mph 31.1 mph N/A   Clear
6:53 PM 80.1 °F 46.9 °F 31% 29.89 in 10.0 mi WNW 23.0 mph 39.1 mph N/A   Clear
7:53 PM 75.9 °F 48.0 °F 37% 29.91 in 10.0 mi NW 20.7 mph 32.2 mph N/A   Clear
8:53 PM 73.0 °F 45.0 °F 37% 29.91 in 10.0 mi NW 19.6 mph 28.8 mph N/A   Clear
9:53 PM 71.1 °F 45.0 °F 39% 29.93 in 10.0 mi NW 16.1 mph 26.5 mph N/A   Clear
10:53 PM 69.1 °F 45.0 °F 42% 29.93 in 10.0 mi NW 24.2 mph 32.2 mph N/A   Clear
11:53 PM 66.0 °F 44.1 °F 45% 29.92 in 10.0 mi NNW 12.7 mph 20.7 mph N/A   Clear